[Iaude] MPEC S100: 2016 SF17 [a=1.65,e=0.36,i=7.7,H=24.0]

mpec at si.edu mpec at si.edu
Thu Sep 29 19:17:52 EDT 2016


M.P.E.C. 2016-S100                               Issued 2016 Sept. 29, 23:13 UT
 
     The Minor Planet Electronic Circulars contain information on unusual
         minor planets and routine data on comets.  They are published
    on behalf of Division F of the International Astronomical Union by the
          Minor Planet Center, Smithsonian Astrophysical Observatory,
                          Cambridge, MA 02138, U.S.A.

             Prepared using the Tamkin Foundation Computer Network

                              MPC at CFA.HARVARD.EDU
            URL http://www.minorplanetcenter.net/    ISSN 1523-6714


                                   2016 SF17
 
Observations:
     K16S17F* C2016 09 27.45021 23 35 11.32 +23 55 55.2          19.5 VqES100G96
     K16S17F  C2016 09 27.45253 23 35 12.38 +23 55 49.9          19.4 VqES100G96
     K16S17F  C2016 09 27.45398 23 35 13.03 +23 55 46.5          19.6 VqES100G96
     K16S17F  C2016 09 27.45576 23 35 13.82 +23 55 42.8          19.4 VqES100G96
     K16S17F  C2016 09 27.47696 23 35 23.33 +23 54 53.8                qES100G96
     K16S17F  C2016 09 27.47885 23 35 24.16 +23 54 50.0          20.9 VqES100G96
     K16S17F  C2016 09 27.48212 23 35 25.74 +23 54 43.2          20.9 VqES100G96
     K16S17F KC2016 09 27.84741 23 38 25.52 +23 41 54.1          19.1 RoES100461
     K16S17F KC2016 09 27.85018 23 38 26.72 +23 41 48.5          18.8 RoES100461
     K16S17F KC2016 09 27.85295 23 38 27.94 +23 41 43.1          19.1 RoES100461
     K16S17F KC2016 09 27.85426 23 38 28.89 +23 41 37.2          19.8 VSES100C47
     K16S17F KC2016 09 27.86035 23 38 31.57 +23 41 24.4          19.8 VSES100C47
     K16S17F KC2016 09 27.86662 23 38 34.36 +23 41 11.4          19.8 VSES100C47
     K16S17F KC2016 09 27.87271 23 38 37.06 +23 40 58.8          19.7 VSES100C47
     K16S17F  C2016 09 27.87536 23 38 38.31 +23 40 52.3                qES100246
     K16S17F  C2016 09 27.87636 23 38 38.77 +23 40 51.6                qES100246
     K16S17F  C2016 09 27.87665 23 38 38.92 +23 40 50.5                qES100246
     K16S17F  C2016 09 27.87682 23 38 38.95 +23 40 49.5                qES100246
     K16S17F  C2016 09 27.87715 23 38 39.12 +23 40 49.1                qES100246
     K16S17F  C2016 09 27.87734 23 38 39.14 +23 40 48.6                qES100246
     K16S17F  C2016 09 27.87751 23 38 39.19 +23 40 48.7                qES100246
     K16S17F  C2016 09 27.87780 23 38 39.38 +23 40 47.7                qES100246
     K16S17F KC2016 09 27.90542 23 38 52.89 +23 39 42.3                qES100J95
     K16S17F KC2016 09 27.91106 23 38 55.42 +23 39 31.1                qES100J95
     K16S17F KC2016 09 27.91682 23 38 57.95 +23 39 18.6          20.2 RqES100J95
     K16S17F KC2016 09 27.94339523 39 08.95 +23 38 32.8          20.0  qES100B04
     K16S17F KC2016 09 27.95472823 39 13.92 +23 38 07.8          19.8  qES100B04
     K16S17F KC2016 09 27.97819423 39 24.27 +23 37 16.3          19.5  qES100B04
     K16S17F KC2016 09 28.00047 23 39 33.70 +23 36 28.8          19.7 RqES100104
     K16S17F KC2016 09 28.00601 23 39 36.18 +23 36 16.6          19.7 RqES100104
     K16S17F KC2016 09 28.01156 23 39 38.66 +23 36 02.6          19.4 RqES100104
     K16S17F KC2016 09 28.11818 23 40 27.17 +23 31 51.4          19.4 RqES100204
     K16S17F HC2016 09 28.12862 23 40 31.96 +23 31 27.4                qES100204
     K16S17F KC2016 09 28.81894 23 46 18.13 +23 05 01.9          18.8 RqES100160
     K16S17F KC2016 09 28.82171 23 46 19.44 +23 04 55.5          18.8 RqES100160
     K16S17F KC2016 09 28.82448 23 46 20.73 +23 04 49.0          18.6 RqES100160
     K16S17F KC2016 09 28.82726 23 46 22.04 +23 04 42.6          18.9 RqES100160
     K16S17F KC2016 09 28.83008 23 46 23.36 +23 04 36.1          19.0 RqES100160
     K16S17F KC2016 09 28.83289 23 46 24.67 +23 04 29.9          18.9 RqES100160
     K16S17F KC2016 09 28.86352 23 46 39.29 +23 03 18.4          20.1 VqES100C77
     K16S17F KC2016 09 28.87443 23 46 44.34 +23 02 51.2          19.2 VqES100C77
     K16S17F KC2016 09 28.88676 23 46 50.00 +23 02 21.7          20.6 VqES100C77
     K16S17F KC2016 09 28.91471 23 47 03.76 +23 01 15.2          20.0 VqES100958
     K16S17F KC2016 09 28.92313 23 47 07.70 +23 00 55.3          19.7 VqES100958
     K16S17F KC2016 09 28.93062 23 47 11.22 +23 00 37.6          20.0 VqES100958
     K16S17F 1C2016 09 29.29155 23 50 11.86 +22 45 27.8                 ES100658
     K16S17F 1C2016 09 29.29304 23 50 12.56 +22 45 23.9                 ES100658
     K16S17F 1C2016 09 29.29455 23 50 13.27 +22 45 20.3                 ES100658
     K16S17F KC2016 09 29.75333 23 54 12.64 +22 25 10.7          19.9 V ES100L04
     K16S17F KC2016 09 29.76257 23 54 18.08 +22 24 41.6          20.0 RqES100587
     K16S17F KC2016 09 29.76658 23 54 19.23 +22 24 36.6          19.8 V ES100L04
     K16S17F KC2016 09 29.77227 23 54 22.88 +22 24 18.1                qES100587
     K16S17F KC2016 09 29.77995 23 54 26.73 +22 23 58.9                qES100587
     K16S17F KC2016 09 29.78080 23 54 26.58 +22 23 50.2          19.9  qES100113
     K16S17F KC2016 09 29.78562 23 54 28.97 +22 23 37.7          19.4  qES100113
     K16S17F KC2016 09 29.79043 23 54 31.34 +22 23 25.9          19.7  qES100113
     K16S17F KC2016 09 29.81047 23 54 42.03 +22 22 27.8                qES100J95
     K16S17F KC2016 09 29.81762 23 54 45.63 +22 22 09.7                qES100J95
     K16S17F KC2016 09 29.82500 23 54 49.35 +22 21 50.6          19.4 RqES100J95
     K16S17F  C2016 09 29.82920 23 54 50.66 +22 21 50.4                qES100246
     K16S17F  C2016 09 29.82954 23 54 50.78 +22 21 49.7          19.7 RqES100246
     K16S17F  C2016 09 29.83014 23 54 51.08 +22 21 48.2                qES100246
     K16S17F  C2016 09 29.83047 23 54 51.43 +22 21 46.8                qES100246
 
Observer details:
104 San Marcello Pistoiese.  Observers P. Bacci, M. Maestripieri.  Measurers
    P. Bacci, L. Tesi, G. Fagioli.  0.60-m f/4 reflector + CCD.
113 Volkssternwarte Drebach, Schoenbrunn.  Observer G. Lehmann.  0.5-m f/4.6
    reflector + CCD.
160 Castelmartini.  Observers M. Jaeger, E. Prosperi, S. Prosperi, W. Vollmann.
    Measurer E. Prosperi.  0.35-m f/10 Schmidt-Cassegrain + CCD.
204 Schiaparelli Observatory.  Observer L. Buzzi.  0.60-m f/4.64 reflector
    + CCD.
246 Klet Observatory-KLENOT.  Observers M. Tichy, J. Ticha.  Measurer M. Tichy.
    1.06-m KLENOT Telescope + CCD.
461 University of Szeged, Piszkesteto Stn. (Konkoly).  Observer A. Sodor.
    Measurer K. Sarneczky.  0.60-m Schmidt + CCD.
587 Sormano.  Observers A. Fumagalli, F. Manca, A. Testa.  Measurer F. Manca.
    0.5-m f/6.8 reflector + CCD.
658 National Research Council of Canada.  Observer D. D. Balam.  1.82-m
    Plaskett telescope + CCD.
958 Observatoire de Dax.  Observers P. Dupouy, J. B. de Vanssay.  Measurer
    P. Dupouy.  0.43-m f/2.7 reflector + CCD.
B04 OAVdA, Saint-Barthelemy.  Observer A. Carbognani.  0.81-m f/4.7 reflector
    + CCD.
C47 Nonndorf.  Observer G. Dangl.  0.25-m f/4.8 reflector + CCD.
C77 Bernezzo Observatory.  Observer A. Mantero.  0.25-m f/4 reflector + CCD.
G96 Mt. Lemmon Survey.  Observer E. J. Christensen.  Measurers
    E. J. Christensen, D. C. Fuls, A. R. Gibbs, A. D. Grauer, J. A. Johnson,
    R. A. Kowalski, S. M. Larson, G. J. Leonard, R. G. Matheny, R. L. Seaman,
    F. C. Shelly.  1.5-m reflector + 10K CCD.
J95 Great Shefford.  Observer P. Birtwhistle.  0.40-m f/6.0 Schmidt-Cassegrain
    + CCD.
L04 ROASTERR-1 Observatory, Cluj-Napoca.  Observer L. Hudin.  0.3-m f/5.0
    reflector + CCD.
 
Orbital elements:
2016 SF17                                                Earth MOID = 0.0617 AU
Epoch 2016 July 31.0 TT = JDT 2457600.5                 MPC
M 324.28236              (2000.0)            P               Q
n   0.46504529     Peri.  185.95037     +0.91695740     -0.39694673
a   1.6499567      Node   197.60446     +0.37133431     +0.88597784
e   0.3579310      Incl.    7.65337     +0.14594506     +0.23974270
P   2.12           H   24.0           G   0.15           U   7
Residuals in seconds of arc
160927 G96  0.4-  0.0     160927 246  0.1-  0.0     160928 958  0.4-  0.6-
160927 G96  0.0   0.0     160927 J95  0.2+  0.3-    160928 958  0.2+  0.5-
160927 G96  0.0   0.2-    160927 J95  0.5+  0.3+    160928 958  1.0+  0.4-
160927 G96  0.0   0.2+    160927 J95  0.1+  0.1-    160929 658  0.2-  0.9-
160927 G96  0.0   0.7-    160927 B04  0.1-  0.1+    160929 658  0.2-  1.1-
160927 G96  0.4-  0.2-    160927 B04  0.3-  0.3-    160929 658  0.3-  0.9-
160927 G96  1.0+  0.4+    160927 B04  0.0   0.0     160929 L04  0.3+  0.1-
160927 461  0.1+  0.3+    160928 104  0.4-  0.1-    160929 587  0.4+  0.7-
160927 461  0.2-  0.5+    160928 104  0.0   0.3+    160929 L04  0.6+  0.7-
160927 461  0.2-  0.8+    160928 104  0.2+  1.1-    160929 587  0.6-  0.2+
160927 C47  0.2-  0.1+    160928 204  0.1-  0.1-    160929 587  0.5-  0.3+
160927 C47  0.4-  0.1-    160928 204  0.9-  1.0+    160929 113  0.5+  0.4-
160927 C47  0.1-  0.0     160928 160  0.4-  0.7+    160929 113  0.3+  0.6-
160927 C47  0.0   0.1+    160928 160  0.3-  0.6+    160929 113  0.1-  0.1-
160927 246  0.0   0.6-    160928 160  0.4-  0.4+    160929 J95  0.4-  0.1+
160927 246  0.2+  0.8+    160928 160  0.2-  0.3+    160929 J95  0.2-  0.2+
160927 246  0.5+  0.3+    160928 160  0.2-  0.3+    160929 J95  0.1+  0.0
160927 246  0.1-  0.3-    160928 160  0.2-  0.5+    160929 246  1.0+  0.7+
160927 246  0.2+  0.0     160928 C77 (1.1+  1.7+)   160929 246  0.3+  0.9+
160927 246  0.6-  0.1-    160928 C77  0.8+  0.1-    160929 246  0.4+  0.9+
160927 246  1.0-  0.3+    160928 C77  0.1+  0.6-    160929 246 (3.0+  0.4+)

Ephemeris:
2016 SF17                a,e,i = 1.65, 0.36, 8                   q = 1.0594
Date    TT    R. A. (2000) Decl.     Delta      r     Elong.  Phase     V
2016 08 30    21 53 10.3 +25 11 04   0.1723  1.1541   144.4    30.6    21.8
...
2016 09 14    22 23 46.5 +26 57 45   0.1176  1.1051   145.9    30.7    20.9
...
2016 09 22    22 59 00.2 +26 06 00   0.09320 1.0855   150.1    27.4    20.3
...
2016 09 28    23 39 35.4 +23 37 13   0.07816 1.0741   156.4    21.9    19.7
2016 09 29    23 47 43.8 +22 58 31   0.07603 1.0725   157.8    20.7    19.6
2016 09 30    23 56 15.9 +22 15 04   0.07403 1.0710   159.3    19.3    19.5
...
2016 10 06    00 54 35.8 +16 06 03   0.06528 1.0639   168.9    10.4    18.9
...
2016 10 14    02 18 32.3 +04 22 45   0.06434 1.0595   164.3    14.8    19.0
...
2016 10 29    04 04 43.1 -11 42 31   0.09128 1.0674   142.7    34.3    20.4

A. U. Tomatic                (C) Copyright 2016 MPC           M.P.E.C. 2016-S100




More information about the Iaude mailing list